sat.trackr.live / text

‹ back to catalog

STARLINK-32406

NORAD 61545 · 2024-184P

PAYLOAD ACTIVE UNKNOWN

§ Identity

Operator
Country
US
Launch date
2024-10-15
Launch site
AFWTR
Launch vehicle
Mass (kg)
RCS (m²)

Purposes: comms

External: N2YO · Heavens-Above · Gunter

§ Orbital elements

Epoch: 2026-05-25T00:41:31.941024Z

Period
94.11 min
Inclination
53.1617°
Eccentricity
0.0001262
Mean motion
15.30179659 rev/d
Perigee alt
474.4 km
Apogee alt
476.1 km
Semi-major
6,853.4 km
B*
7.7625e-5
RAAN
19.4399°
Arg perigee
101.5889°
Mean anomaly
258.5254°
Rev number
9,019

§ Raw data

STARLINK-324061 61545U 24184P   26145.02884191  .00001939  00000+0  77625-4 0  99932 61545  53.1617  19.4399 0001262 101.5889 258.5254 15.30179659 90190

JSON: /api/v1/satellites/61545 · /tle

For live sub-satellite position, see the globe view (requires WebGL).

§ Visibility from observer

Set your observer location to see the next 7 days of passes ≥ 10°. The values pass through the URL so the page stays shareable.

No JS? Fill the form by hand. The geolocation button needs JavaScript.